﻿測定場所 (Monitoring sites),日付 (Measurement date),時間 (Measurement time),線量率 最大値 (max) μGy/h,線量率 最小値 (min) μGy/h,線量率 平均値 (average) μGy/h,
大田 (Ota),2020-01-26,23:01～24:00,0.0349,0.0310,0.0330,
大田 (Ota),2020-01-26,22:01～23:00,0.0348,0.0306,0.0328,
大田 (Ota),2020-01-26,21:01～22:00,0.0362,0.0313,0.0328,
大田 (Ota),2020-01-26,20:01～21:00,0.0344,0.0313,0.0328,
大田 (Ota),2020-01-26,19:01～20:00,0.0352,0.0316,0.0332,
大田 (Ota),2020-01-26,18:01～19:00,0.0348,0.0310,0.0328,
大田 (Ota),2020-01-26,17:01～18:00,0.0349,0.0313,0.0329,
大田 (Ota),2020-01-26,16:01～17:00,0.0348,0.0300,0.0329,
大田 (Ota),2020-01-26,15:01～16:00,0.0351,0.0300,0.0331,
大田 (Ota),2020-01-26,14:01～15:00,0.0361,0.0311,0.0334,
大田 (Ota),2020-01-26,13:01～14:00,0.0368,0.0312,0.0335,
大田 (Ota),2020-01-26,12:01～13:00,0.0386,0.0321,0.0353,
大田 (Ota),2020-01-26,11:01～12:00,0.0403,0.0346,0.0371,
大田 (Ota),2020-01-26,10:01～11:00,0.0425,0.0360,0.0387,
大田 (Ota),2020-01-26,09:01～10:00,0.0440,0.0365,0.0396,
大田 (Ota),2020-01-26,08:01～09:00,0.0436,0.0364,0.0400,
大田 (Ota),2020-01-26,07:01～08:00,0.0438,0.0361,0.0399,
大田 (Ota),2020-01-26,06:01～07:00,0.0488,0.0389,0.0429,
大田 (Ota),2020-01-26,05:01～06:00,0.0505,0.0418,0.0458,
大田 (Ota),2020-01-26,04:01～05:00,0.0504,0.0430,0.0466,
大田 (Ota),2020-01-26,03:01～04:00,0.0463,0.0341,0.0397,
大田 (Ota),2020-01-26,02:01～03:00,0.0359,0.0311,0.0339,
大田 (Ota),2020-01-26,01:01～02:00,0.0346,0.0308,0.0331,
大田 (Ota),2020-01-26,00:01～01:00,0.0351,0.0311,0.0332,
大田 (Ota),2020-01-25,23:01～24:00,0.0353,0.0314,0.0332,
大田 (Ota),2020-01-25,22:01～23:00,0.0345,0.0305,0.0329,
大田 (Ota),2020-01-25,21:01～22:00,0.0360,0.0305,0.0331,
大田 (Ota),2020-01-25,20:01～21:00,0.0365,0.0311,0.0332,
大田 (Ota),2020-01-25,19:01～20:00,0.0349,0.0309,0.0328,
大田 (Ota),2020-01-25,18:01～19:00,0.0356,0.0312,0.0331,
大田 (Ota),2020-01-25,17:01～18:00,0.0358,0.0301,0.0330,
大田 (Ota),2020-01-25,16:01～17:00,0.0354,0.0312,0.0333,
大田 (Ota),2020-01-25,15:01～16:00,0.0345,0.0311,0.0332,
大田 (Ota),2020-01-25,14:01～15:00,0.0354,0.0321,0.0336,
大田 (Ota),2020-01-25,13:01～14:00,0.0357,0.0317,0.0335,
大田 (Ota),2020-01-25,12:01～13:00,0.0362,0.0314,0.0334,
大田 (Ota),2020-01-25,11:01～12:00,0.0356,0.0315,0.0333,
大田 (Ota),2020-01-25,10:01～11:00,0.0360,0.0311,0.0333,
大田 (Ota),2020-01-25,09:01～10:00,0.0357,0.0322,0.0339,
大田 (Ota),2020-01-25,08:01～09:00,0.0355,0.0320,0.0335,
大田 (Ota),2020-01-25,07:01～08:00,0.0350,0.0311,0.0334,
大田 (Ota),2020-01-25,06:01～07:00,0.0350,0.0313,0.0334,
大田 (Ota),2020-01-25,05:01～06:00,0.0352,0.0317,0.0333,
大田 (Ota),2020-01-25,04:01～05:00,0.0356,0.0319,0.0337,
大田 (Ota),2020-01-25,03:01～04:00,0.0353,0.0313,0.0336,
大田 (Ota),2020-01-25,02:01～03:00,0.0354,0.0317,0.0337,
大田 (Ota),2020-01-25,01:01～02:00,0.0361,0.0312,0.0337,
大田 (Ota),2020-01-25,00:01～01:00,0.0361,0.0316,0.0337,
大田 (Ota),2020-01-24,23:01～24:00,0.0368,0.0315,0.0338,
大田 (Ota),2020-01-24,22:01～23:00,0.0364,0.0319,0.0338,
大田 (Ota),2020-01-24,21:01～22:00,0.0352,0.0317,0.0335,
大田 (Ota),2020-01-24,20:01～21:00,0.0359,0.0314,0.0335,
大田 (Ota),2020-01-24,19:01～20:00,0.0356,0.0316,0.0337,
大田 (Ota),2020-01-24,18:01～19:00,0.0355,0.0320,0.0336,
大田 (Ota),2020-01-24,17:01～18:00,0.0363,0.0317,0.0337,
大田 (Ota),2020-01-24,16:01～17:00,0.0358,0.0316,0.0337,
大田 (Ota),2020-01-24,15:01～16:00,0.0360,0.0322,0.0338,
大田 (Ota),2020-01-24,14:01～15:00,0.0367,0.0324,0.0342,
大田 (Ota),2020-01-24,13:01～14:00,0.0363,0.0322,0.0341,
大田 (Ota),2020-01-24,12:01～13:00,0.0365,0.0327,0.0342,
大田 (Ota),2020-01-24,11:01～12:00,0.0359,0.0323,0.0343,
大田 (Ota),2020-01-24,10:01～11:00,0.0361,0.0322,0.0341,
大田 (Ota),2020-01-24,09:01～10:00,0.0358,0.0322,0.0340,
大田 (Ota),2020-01-24,08:01～09:00,0.0358,0.0317,0.0339,
大田 (Ota),2020-01-24,07:01～08:00,0.0369,0.0319,0.0339,
大田 (Ota),2020-01-24,06:01～07:00,0.0356,0.0313,0.0338,
大田 (Ota),2020-01-24,05:01～06:00,0.0369,0.0324,0.0341,
大田 (Ota),2020-01-24,04:01～05:00,0.0361,0.0319,0.0339,
大田 (Ota),2020-01-24,03:01～04:00,0.0362,0.0318,0.0338,
大田 (Ota),2020-01-24,02:01～03:00,0.0356,0.0316,0.0336,
大田 (Ota),2020-01-24,01:01～02:00,0.0359,0.0314,0.0337,
大田 (Ota),2020-01-24,00:01～01:00,0.0358,0.0315,0.0337,
大田 (Ota),2020-01-23,23:01～24:00,0.0362,0.0325,0.0339,
大田 (Ota),2020-01-23,22:01～23:00,0.0366,0.0328,0.0344,
大田 (Ota),2020-01-23,21:01～22:00,0.0368,0.0317,0.0342,
大田 (Ota),2020-01-23,20:01～21:00,0.0360,0.0314,0.0343,
大田 (Ota),2020-01-23,19:01～20:00,0.0375,0.0321,0.0350,
大田 (Ota),2020-01-23,18:01～19:00,0.0429,0.0343,0.0368,
大田 (Ota),2020-01-23,17:01～18:00,0.0452,0.0381,0.0411,
大田 (Ota),2020-01-23,16:01～17:00,0.0486,0.0406,0.0450,
大田 (Ota),2020-01-23,15:01～16:00,0.0481,0.0399,0.0433,
大田 (Ota),2020-01-23,14:01～15:00,0.0483,0.0402,0.0437,
大田 (Ota),2020-01-23,13:01～14:00,0.0472,0.0356,0.0406,
大田 (Ota),2020-01-23,12:01～13:00,0.0417,0.0344,0.0375,
大田 (Ota),2020-01-23,11:01～12:00,0.0478,0.0368,0.0413,
大田 (Ota),2020-01-23,10:01～11:00,0.0489,0.0401,0.0445,
大田 (Ota),2020-01-23,09:01～10:00,0.0453,0.0364,0.0409,
大田 (Ota),2020-01-23,08:01～09:00,0.0495,0.0366,0.0426,
大田 (Ota),2020-01-23,07:01～08:00,0.0467,0.0356,0.0409,
大田 (Ota),2020-01-23,06:01～07:00,0.0365,0.0319,0.0344,
大田 (Ota),2020-01-23,05:01～06:00,0.0357,0.0322,0.0339,
大田 (Ota),2020-01-23,04:01～05:00,0.0368,0.0318,0.0339,
大田 (Ota),2020-01-23,03:01～04:00,0.0368,0.0325,0.0342,
大田 (Ota),2020-01-23,02:01～03:00,0.0360,0.0322,0.0338,
大田 (Ota),2020-01-23,01:01～02:00,0.0359,0.0311,0.0337,
大田 (Ota),2020-01-23,00:01～01:00,0.0357,0.0321,0.0340,
大田 (Ota),2020-01-22,23:01～24:00,0.0357,0.0323,0.0340,
大田 (Ota),2020-01-22,22:01～23:00,0.0357,0.0313,0.0336,
大田 (Ota),2020-01-22,21:01～22:00,0.0361,0.0313,0.0337,
大田 (Ota),2020-01-22,20:01～21:00,0.0358,0.0316,0.0338,
大田 (Ota),2020-01-22,19:01～20:00,0.0357,0.0316,0.0339,
大田 (Ota),2020-01-22,18:01～19:00,0.0357,0.0320,0.0337,
大田 (Ota),2020-01-22,17:01～18:00,0.0355,0.0314,0.0339,
大田 (Ota),2020-01-22,16:01～17:00,0.0359,0.0316,0.0337,
大田 (Ota),2020-01-22,15:01～16:00,0.0361,0.0312,0.0340,
大田 (Ota),2020-01-22,14:01～15:00,0.0370,0.0330,0.0348,
大田 (Ota),2020-01-22,13:01～14:00,0.0379,0.0335,0.0359,
大田 (Ota),2020-01-22,12:01～13:00,0.0379,0.0313,0.0349,
大田 (Ota),2020-01-22,11:01～12:00,0.0356,0.0312,0.0339,
大田 (Ota),2020-01-22,10:01～11:00,0.0358,0.0323,0.0341,
大田 (Ota),2020-01-22,09:01～10:00,0.0361,0.0316,0.0340,
大田 (Ota),2020-01-22,08:01～09:00,0.0364,0.0321,0.0339,
大田 (Ota),2020-01-22,07:01～08:00,0.0359,0.0314,0.0335,
大田 (Ota),2020-01-22,06:01～07:00,0.0357,0.0316,0.0336,
大田 (Ota),2020-01-22,05:01～06:00,0.0366,0.0311,0.0333,
大田 (Ota),2020-01-22,04:01～05:00,0.0360,0.0318,0.0338,
大田 (Ota),2020-01-22,03:01～04:00,0.0359,0.0312,0.0335,
大田 (Ota),2020-01-22,02:01～03:00,0.0358,0.0308,0.0338,
大田 (Ota),2020-01-22,01:01～02:00,0.0349,0.0318,0.0334,
大田 (Ota),2020-01-22,00:01～01:00,0.0351,0.0315,0.0332,
大田 (Ota),2020-01-21,23:01～24:00,0.0360,0.0313,0.0335,
大田 (Ota),2020-01-21,22:01～23:00,0.0358,0.0314,0.0339,
大田 (Ota),2020-01-21,21:01～22:00,0.0355,0.0324,0.0340,
大田 (Ota),2020-01-21,20:01～21:00,0.0363,0.0320,0.0338,
大田 (Ota),2020-01-21,19:01～20:00,0.0367,0.0323,0.0342,
大田 (Ota),2020-01-21,18:01～19:00,0.0354,0.0315,0.0338,
大田 (Ota),2020-01-21,17:01～18:00,0.0362,0.0323,0.0342,
大田 (Ota),2020-01-21,16:01～17:00,0.0365,0.0328,0.0345,
大田 (Ota),2020-01-21,15:01～16:00,0.0367,0.0326,0.0347,
大田 (Ota),2020-01-21,14:01～15:00,0.0368,0.0325,0.0344,
大田 (Ota),2020-01-21,13:01～14:00,0.0371,0.0321,0.0344,
大田 (Ota),2020-01-21,12:01～13:00,0.0369,0.0321,0.0345,
大田 (Ota),2020-01-21,11:01～12:00,0.0369,0.0332,0.0348,
大田 (Ota),2020-01-21,10:01～11:00,0.0366,0.0328,0.0348,
大田 (Ota),2020-01-21,09:01～10:00,0.0372,0.0329,0.0349,
大田 (Ota),2020-01-21,08:01～09:00,0.0365,0.0320,0.0344,
大田 (Ota),2020-01-21,07:01～08:00,0.0359,0.0326,0.0343,
大田 (Ota),2020-01-21,06:01～07:00,0.0365,0.0314,0.0339,
大田 (Ota),2020-01-21,05:01～06:00,0.0360,0.0320,0.0341,
大田 (Ota),2020-01-21,04:01～05:00,0.0373,0.0322,0.0345,
大田 (Ota),2020-01-21,03:01～04:00,0.0362,0.0322,0.0348,
大田 (Ota),2020-01-21,02:01～03:00,0.0368,0.0331,0.0345,
大田 (Ota),2020-01-21,01:01～02:00,0.0370,0.0324,0.0346,
大田 (Ota),2020-01-21,00:01～01:00,0.0366,0.0324,0.0343,
大田 (Ota),2020-01-20,23:01～24:00,0.0365,0.0313,0.0338,
大田 (Ota),2020-01-20,22:01～23:00,0.0367,0.0323,0.0341,
大田 (Ota),2020-01-20,21:01～22:00,0.0366,0.0306,0.0339,
大田 (Ota),2020-01-20,20:01～21:00,0.0365,0.0316,0.0338,
大田 (Ota),2020-01-20,19:01～20:00,0.0357,0.0314,0.0337,
大田 (Ota),2020-01-20,18:01～19:00,0.0358,0.0317,0.0336,
大田 (Ota),2020-01-20,17:01～18:00,0.0363,0.0318,0.0337,
大田 (Ota),2020-01-20,16:01～17:00,0.0351,0.0309,0.0336,
大田 (Ota),2020-01-20,15:01～16:00,0.0355,0.0317,0.0336,
大田 (Ota),2020-01-20,14:01～15:00,0.0363,0.0322,0.0339,
大田 (Ota),2020-01-20,13:01～14:00,0.0367,0.0313,0.0338,
大田 (Ota),2020-01-20,12:01～13:00,0.0366,0.0323,0.0343,
大田 (Ota),2020-01-20,11:01～12:00,0.0365,0.0319,0.0343,
大田 (Ota),2020-01-20,10:01～11:00,0.0379,0.0328,0.0345,
大田 (Ota),2020-01-20,09:01～10:00,0.0363,0.0319,0.0343,
大田 (Ota),2020-01-20,08:01～09:00,0.0357,0.0325,0.0339,
大田 (Ota),2020-01-20,07:01～08:00,0.0362,0.0312,0.0340,
大田 (Ota),2020-01-20,06:01～07:00,0.0361,0.0319,0.0339,
大田 (Ota),2020-01-20,05:01～06:00,0.0358,0.0315,0.0338,
大田 (Ota),2020-01-20,04:01～05:00,0.0364,0.0312,0.0337,
大田 (Ota),2020-01-20,03:01～04:00,0.0362,0.0320,0.0341,
大田 (Ota),2020-01-20,02:01～03:00,0.0354,0.0322,0.0339,
大田 (Ota),2020-01-20,01:01～02:00,0.0369,0.0310,0.0337,
大田 (Ota),2020-01-20,00:01～01:00,0.0361,0.0318,0.0336,
